,,Stat6,,Stat2,,Stat8,,Stat9,,Stat10,,Wind1,,Wind1,
time,status,PA1M_AVG,status,PR1M_SUM,status,RH1M_AVG,status,SR1M_AVG,status,TA1M_AVG,status,W1dAve1m,status,W1sAve1m,
2003-11-15, 00:00:00,VALID,919.191,VALID,0,VALID,100,VALID,-0.0169808,VALID,19.5089,VALID,249,VALID,0.204144,
2003-11-15, 00:01:00,VALID,919.196,VALID,0,VALID,100,VALID,-0.0509425,VALID,19.5189,VALID,240,VALID,0.261285,
2003-11-15, 00:02:01,VALID,919.18,VALID,0,VALID,100,VALID,-0.0169808,VALID,19.5452,VALID,9,VALID,0.511218,
2003-11-15, 00:03:00,VALID,919.177,VALID,0,VALID,100,VALID,-0.0849042,VALID,19.5613,VALID,25,VALID,0.103161,
2003-11-15, 00:04:01,VALID,919.147,VALID,0,VALID,100,VALID,0,VALID,19.5902,VALID,25,VALID,0,
2003-11-15, 00:05:01,VALID,919.142,VALID,0,VALID,100,VALID,-0.0509425,VALID,19.6001,VALID,25,VALID,0.00090843,
2003-11-15, 00:06:01,VALID,919.098,VALID,0,VALID,100,VALID,-0.101885,VALID,19.5743,VALID,37,VALID,0.249273,
2003-11-15, 00:07:00,VALID,919.092,VALID,0,VALID,100,VALID,-0.101885,VALID,19.5611,VALID,112,VALID,0.561632,
2003-11-15, 00:08:00,VALID,919.078,VALID,0,VALID,100,VALID,-0.0849042,VALID,19.5551,VALID,119,VALID,0.554315,
2003-11-15, 00:09:00,VALID,919.064,VALID,0,VALID,100,VALID,-0.101885,VALID,19.5584,VALID,120,VALID,0.158155,
2003-11-15, 00:10:00,VALID,919.053,VALID,0,VALID,100,VALID,-0.101885,VALID,19.5482,VALID,120,VALID,0,
2003-11-15, 00:11:00,VALID,919.045,VALID,0,VALID,100,VALID,-0.101885,VALID,19.5748,VALID,120,VALID,0.0343387,
2003-11-15, 00:12:00,VALID,919.02,VALID,0,VALID,100,VALID,-0.101885,VALID,19.5812,VALID,45,VALID,0.152248,
2003-11-15, 00:13:00,VALID,919.004,VALID,0,VALID,100,VALID,-0.101885,VALID,19.6068,VALID,20,VALID,0.342578,
2003-11-15, 00:14:01,VALID,918.974,VALID,0,VALID,100,VALID,-0.101885,VALID,19.6133,VALID,352,VALID,0.362695,
2003-11-15, 00:15:01,VALID,918.947,VALID,0,VALID,100,VALID,-0.0849042,VALID,19.623,VALID,338,VALID,0.885789,
2003-11-15, 00:16:01,VALID,918.916,VALID,0,VALID,100,VALID,-0.101885,VALID,19.6326,VALID,344,VALID,0.99628,
2003-11-15, 00:17:01,VALID,918.879,VALID,0,VALID,100,VALID,-0.0849042,VALID,19.6553,VALID,7,VALID,1.11594,
2003-11-15, 00:18:01,VALID,918.855,VALID,0,VALID,100,VALID,-0.0679233,VALID,19.6582,VALID,11,VALID,1.17951,
2003-11-15, 00:19:00,VALID,918.823,VALID,0,VALID,100,VALID,-0.0849042,VALID,19.6873,VALID,11,VALID,0.678199,
2003-11-15, 00:20:00,VALID,918.805,VALID,0,VALID,100,VALID,-0.0849042,VALID,19.6975,VALID,11,VALID,0.250545,
2003-11-15, 00:21:00,VALID,918.779,VALID,0,VALID,100,VALID,-0.0849042,VALID,19.6972,VALID,9,VALID,0.144531,
2003-11-15, 00:22:00,VALID,918.747,VALID,0,VALID,100,VALID,-0.0849042,VALID,19.7099,VALID,9,VALID,0.355097,
2003-11-15, 00:23:01,VALID,918.739,VALID,0,VALID,100,VALID,-0.0849042,VALID,19.7196,VALID,8,VALID,0.463672,
2003-11-15, 00:24:01,VALID,918.721,VALID,0,VALID,100,VALID,-0.0849042,VALID,19.7194,VALID,339,VALID,0.40293,
2003-11-15, 00:25:00,VALID,918.715,VALID,0,VALID,100,VALID,-0.0849042,VALID,19.7166,VALID,323,VALID,0.292515,
2003-11-15, 00:26:00,VALID,918.689,VALID,0,VALID,100,VALID,-0.0679233,VALID,19.7129,VALID,324,VALID,0,
2003-11-15, 00:27:01,VALID,918.672,VALID,0,VALID,100,VALID,-0.0849042,VALID,19.7097,VALID,324,VALID,0,
2003-11-15, 00:28:00,VALID,918.64,VALID,0,VALID,100,VALID,-0.0509425,VALID,19.7092,VALID,324,VALID,0,
2003-11-15, 00:29:00,VALID,918.644,VALID,0,VALID,100,VALID,-0.0509425,VALID,19.7089,VALID,323,VALID,0.0520198,
2003-11-15, 00:30:00,VALID,918.635,VALID,0,VALID,100,VALID,-0.0849042,VALID,19.6935,VALID,322,VALID,0.166853,
2003-11-15, 00:31:00,VALID,918.621,VALID,0,VALID,100,VALID,-0.0849042,VALID,19.694,VALID,322,VALID,0,
2003-11-15, 00:32:00,VALID,918.609,VALID,0,VALID,100,VALID,-0.101885,VALID,19.7037,VALID,322,VALID,0,
2003-11-15, 00:33:00,VALID,918.596,VALID,0,VALID,100,VALID,-0.101885,VALID,19.6997,VALID,322,VALID,0,
2003-11-15, 00:34:00,VALID,918.582,VALID,0,VALID,100,VALID,-0.0679233,VALID,19.6995,VALID,323,VALID,0.194531,
2003-11-15, 00:35:01,VALID,918.554,VALID,0,VALID,100,VALID,-0.0679233,VALID,19.6997,VALID,347,VALID,0.635476,
2003-11-15, 00:36:00,VALID,918.545,VALID,0,VALID,100,VALID,0,VALID,19.6985,VALID,3,VALID,1.16555,
2003-11-15, 00:37:00,VALID,918.529,VALID,0,VALID,100,VALID,0.0679233,VALID,19.7017,VALID,3,VALID,0.731889,
2003-11-15, 00:38:00,VALID,918.537,VALID,0,VALID,100,VALID,0.0169808,VALID,19.6982,VALID,7,VALID,0.627477,
2003-11-15, 00:39:01,VALID,918.526,VALID,0,VALID,100,VALID,0.0169808,VALID,19.7087,VALID,18,VALID,0.942336,
2003-11-15, 00:40:00,VALID,918.519,VALID,0,VALID,100,VALID,0.0169808,VALID,19.7114,VALID,16,VALID,0.839844,
2003-11-15, 00:41:00,VALID,918.517,VALID,0,VALID,100,VALID,0,VALID,19.7343,VALID,7,VALID,0.460227,
2003-11-15, 00:42:01,VALID,918.515,VALID,0,VALID,100,VALID,0.0169808,VALID,19.7437,VALID,8,VALID,0.379464,
2003-11-15, 00:43:00,VALID,918.514,VALID,0,VALID,100,VALID,0.0169808,VALID,19.7504,VALID,10,VALID,0.355859,
2003-11-15, 00:44:00,VALID,918.513,VALID,0,VALID,100,VALID,0,VALID,19.7698,VALID,10,VALID,0.0907738,
2003-11-15, 00:46:01,VALID,918.467,VALID,0,VALID,100,VALID,0.0169808,VALID,19.7758,VALID,10,VALID,0.494284,
2003-11-15, 00:47:04,VALID,918.451,VALID,0,VALID,100,VALID,0.0339617,VALID,19.776,VALID,10,VALID,0.00053267,
2003-11-15, 00:48:00,VALID,918.438,VALID,0,VALID,100,VALID,0.0509425,VALID,19.7758,VALID,9,VALID,0.252544,
2003-11-15, 00:49:01,VALID,918.422,VALID,0,VALID,100,VALID,0.0339617,VALID,19.7825,VALID,18,VALID,0.581499,
2003-11-15, 00:50:00,VALID,918.407,VALID,0,VALID,100,VALID,0,VALID,19.7922,VALID,1,VALID,0.590661,
2003-11-15, 00:51:01,VALID,918.388,VALID,0,VALID,100,VALID,-0.101885,VALID,19.7613,VALID,331,VALID,0.614757,
2003-11-15, 00:52:00,VALID,918.374,VALID,0,VALID,100,VALID,-0.0679233,VALID,19.7613,VALID,357,VALID,0.287538,
2003-11-15, 00:53:00,VALID,918.365,VALID,0,VALID,100,VALID,-0.0849042,VALID,19.7616,VALID,357,VALID,0.0333984,
2003-11-15, 00:54:00,VALID,918.341,VALID,0,VALID,100,VALID,-0.0849042,VALID,19.7452,VALID,357,VALID,0,
2003-11-15, 00:55:01,VALID,918.322,VALID,0,VALID,100,VALID,-0.0679233,VALID,19.742,VALID,357,VALID,0,
2003-11-15, 00:56:00,VALID,918.301,VALID,0,VALID,100,VALID,-0.0509425,VALID,19.735,VALID,357,VALID,0,
2003-11-15, 00:57:00,VALID,918.301,VALID,0,VALID,100,VALID,-0.0849042,VALID,19.7489,VALID,357,VALID,0.0012429,
2003-11-15, 00:58:01,VALID,918.295,VALID,0,VALID,100,VALID,-0.0679233,VALID,19.738,VALID,357,VALID,0.363991,
2003-11-15, 00:59:01,VALID,918.272,VALID,0,VALID,100,VALID,-0.0509425,VALID,19.7673,VALID,19,VALID,0.648438,
2003-11-15, 01:00:00,VALID,918.252,VALID,0,VALID,100,VALID,-0.0679233,VALID,19.7772,VALID,18,VALID,0.737891,
2003-11-15, 01:01:00,VALID,918.235,VALID,0,VALID,100,VALID,-0.101885,VALID,19.7842,VALID,17,VALID,0.68641,
2003-11-15, 01:02:00,VALID,918.204,VALID,0,VALID,100,VALID,-0.0509425,VALID,19.7705,VALID,11,VALID,1.0476,
2003-11-15, 01:03:01,VALID,918.195,VALID,0,VALID,100,VALID,-0.101885,VALID,19.7579,VALID,4,VALID,0.484557,
2003-11-15, 01:04:01,VALID,918.18,VALID,0,VALID,100,VALID,-0.0849042,VALID,19.7517,VALID,13,VALID,0.665625,
2003-11-15, 01:05:00,VALID,918.176,VALID,0,VALID,100,VALID,-0.0509425,VALID,19.7517,VALID,15,VALID,0.515439,
2003-11-15, 01:06:00,VALID,918.166,VALID,0,VALID,100,VALID,-0.101885,VALID,19.7517,VALID,12,VALID,0.291481,
2003-11-15, 01:07:01,VALID,918.144,VALID,0,VALID,100,VALID,-0.101885,VALID,19.7618,VALID,8,VALID,0.270089,
2003-11-15, 01:08:00,VALID,918.125,VALID,0,VALID,100,VALID,-0.101885,VALID,19.7487,VALID,14,VALID,0.635174,
2003-11-15, 01:09:00,VALID,918.114,VALID,0,VALID,100,VALID,-0.0849042,VALID,19.7482,VALID,12,VALID,0.234375,
2003-11-15, 01:10:01,VALID,918.089,VALID,0,VALID,100,VALID,-0.0849042,VALID,19.7517,VALID,21,VALID,0.741587,
2003-11-15, 01:11:01,VALID,918.054,VALID,0,VALID,100,VALID,-0.0679233,VALID,19.7487,VALID,7,VALID,0.996189,
2003-11-15, 01:12:01,VALID,918.024,VALID,0,VALID,100,VALID,-0.101885,VALID,19.742,VALID,17,VALID,1.2904,
2003-11-15, 01:13:00,VALID,918.022,VALID,0,VALID,100,VALID,-0.101885,VALID,19.7392,VALID,360,VALID,1.14565,
2003-11-15, 01:14:00,VALID,917.994,VALID,0,VALID,100,VALID,-0.0849042,VALID,19.7328,VALID,13,VALID,1.42454,
2003-11-15, 01:15:01,VALID,917.971,VALID,0,VALID,100,VALID,-0.101885,VALID,19.7387,VALID,14,VALID,1.40007,
2003-11-15, 01:16:01,VALID,917.973,VALID,0,VALID,100,VALID,-0.0679233,VALID,19.7522,VALID,10,VALID,0.622337,
2003-11-15, 01:17:00,VALID,917.978,VALID,0,VALID,100,VALID,-0.101885,VALID,19.7392,VALID,333,VALID,0.528343,
2003-11-15, 01:18:01,VALID,917.979,VALID,0,VALID,100,VALID,-0.101885,VALID,19.7328,VALID,347,VALID,0.19375,
2003-11-15, 01:19:01,VALID,917.971,VALID,0,VALID,100,VALID,-0.0849042,VALID,19.732,VALID,10,VALID,0.928013,
2003-11-15, 01:20:01,VALID,917.961,VALID,0,VALID,100,VALID,-0.0679233,VALID,19.7358,VALID,8,VALID,1.33665,
2003-11-15, 01:21:01,VALID,917.961,VALID,0,VALID,100,VALID,0,VALID,19.7246,VALID,358,VALID,1.21406,
2003-11-15, 01:22:01,VALID,917.961,VALID,0,VALID,100,VALID,0,VALID,19.731,VALID,13,VALID,1.32241,
2003-11-15, 01:23:01,VALID,917.967,VALID,0,VALID,100,VALID,0.0339617,VALID,19.7407,VALID,357,VALID,1.13672,
2003-11-15, 01:24:00,VALID,917.963,VALID,0,VALID,100,VALID,0.0169808,VALID,19.7437,VALID,8,VALID,0.989347,
2003-11-15, 01:25:01,VALID,917.951,VALID,0,VALID,100,VALID,0.0169808,VALID,19.7564,VALID,18,VALID,1.06181,
2003-11-15, 01:26:01,VALID,917.934,VALID,0,VALID,100,VALID,0,VALID,19.7795,VALID,14,VALID,1.08166,
2003-11-15, 01:27:00,VALID,917.91,VALID,0,VALID,100,VALID,0,VALID,19.7661,VALID,8,VALID,0.827363,
2003-11-15, 01:28:00,VALID,917.888,VALID,0,VALID,100,VALID,0,VALID,19.77,VALID,347,VALID,0.827148,
2003-11-15, 01:29:01,VALID,917.864,VALID,0,VALID,100,VALID,0,VALID,19.7763,VALID,4,VALID,0.888393,
2003-11-15, 01:30:01,VALID,917.84,VALID,0,VALID,100,VALID,0,VALID,19.7795,VALID,15,VALID,1.38354,
2003-11-15, 01:31:01,VALID,917.806,VALID,0,VALID,99.9893,VALID,0,VALID,19.7862,VALID,350,VALID,1.21591,
2003-11-15, 01:32:01,VALID,917.789,VALID,0,VALID,99.9392,VALID,0,VALID,19.7531,VALID,357,VALID,1.01163,
2003-11-15, 01:33:01,VALID,917.767,VALID,0,VALID,99.896,VALID,-0.0169808,VALID,19.7536,VALID,337,VALID,0.719752,
2003-11-15, 01:34:01,VALID,917.736,VALID,0,VALID,99.8795,VALID,0,VALID,19.7539,VALID,21,VALID,0.807776,
2003-11-15, 01:35:01,VALID,917.7,VALID,0,VALID,99.8833,VALID,0.0509425,VALID,19.7464,VALID,19,VALID,1.15461,
2003-11-15, 01:36:01,VALID,917.683,VALID,0,VALID,99.8706,VALID,0,VALID,19.7472,VALID,352,VALID,1.31889,
2003-11-15, 01:37:01,VALID,917.666,VALID,0,VALID,99.8299,VALID,0,VALID,19.7375,VALID,338,VALID,0.393601,
2003-11-15, 01:38:01,VALID,917.655,VALID,0,VALID,99.8616,VALID,0,VALID,19.741,VALID,9,VALID,1.07889,
2003-11-15, 01:39:01,VALID,917.649,VALID,0,VALID,99.8884,VALID,0,VALID,19.7343,VALID,10,VALID,0.491493,
2003-11-15, 01:40:01,VALID,917.626,VALID,0,VALID,99.9201,VALID,0,VALID,19.7571,VALID,23,VALID,0.815225,
2003-11-15, 01:41:01,VALID,917.606,VALID,0,VALID,99.9201,VALID,0,VALID,19.7504,VALID,5,VALID,1.28634,
2003-11-15, 01:42:01,VALID,917.604,VALID,0,VALID,99.9214,VALID,0,VALID,19.744,VALID,19,VALID,1.05415,
2003-11-15, 01:43:01,VALID,917.608,VALID,0,VALID,99.9265,VALID,0,VALID,19.7407,VALID,16,VALID,0.761052,
2003-11-15, 01:44:01,VALID,917.593,VALID,0,VALID,99.9481,VALID,0,VALID,19.7502,VALID,19,VALID,0.92207,
2003-11-15, 01:45:01,VALID,917.611,VALID,0,VALID,99.9621,VALID,0,VALID,19.7733,VALID,24,VALID,0.78125,
2003-11-15, 01:46:01,VALID,917.622,VALID,0,VALID,99.9939,VALID,0.0169808,VALID,19.7827,VALID,21,VALID,0.685826,
2003-11-15, 01:47:01,VALID,917.619,VALID,0,VALID,99.9969,VALID,0,VALID,19.8056,VALID,20,VALID,0.432292,
2003-11-15, 01:48:01,VALID,917.614,VALID,0,VALID,100,VALID,0,VALID,19.8056,VALID,12,VALID,0.286204,
2003-11-15, 01:49:01,VALID,917.592,VALID,0,VALID,100,VALID,0,VALID,19.822,VALID,12,VALID,0.454578,
2003-11-15, 01:50:00,VALID,917.572,VALID,0,VALID,100,VALID,0.0339617,VALID,19.812,VALID,21,VALID,1.02326,
2003-11-15, 01:51:00,VALID,917.566,VALID,0,VALID,99.9944,VALID,-0.0169808,VALID,19.7994,VALID,4,VALID,0.929324,
2003-11-15, 01:52:00,VALID,917.564,VALID,0,VALID,99.9822,VALID,0.0169808,VALID,19.7698,VALID,360,VALID,0.576308,
2003-11-15, 01:53:00,VALID,917.556,VALID,0,VALID,99.9748,VALID,0,VALID,19.7569,VALID,3,VALID,0.51029,
2003-11-15, 01:54:00,VALID,917.554,VALID,0,VALID,99.9723,VALID,0,VALID,19.7442,VALID,14,VALID,0.958984,
2003-11-15, 01:55:00,VALID,917.529,VALID,0,VALID,99.9819,VALID,0.0169808,VALID,19.7343,VALID,15,VALID,0.988009,
2003-11-15, 01:56:00,VALID,917.525,VALID,0,VALID,99.999,VALID,0,VALID,19.744,VALID,14,VALID,0.590745,
2003-11-15, 01:57:00,VALID,917.528,VALID,0,VALID,100,VALID,0,VALID,19.7472,VALID,11,VALID,0.890625,
2003-11-15, 01:58:00,VALID,917.527,VALID,0,VALID,100,VALID,-0.0169808,VALID,19.7442,VALID,12,VALID,0.893415,
2003-11-15, 01:59:00,VALID,917.536,VALID,0,VALID,100,VALID,0,VALID,19.7345,VALID,359,VALID,0.799479,
2003-11-15, 02:00:00,VALID,917.542,VALID,0,VALID,100,VALID,0,VALID,19.7213,VALID,13,VALID,0.771913,
2003-11-15, 02:01:00,VALID,917.55,VALID,0,VALID,100,VALID,-0.0169808,VALID,19.7318,VALID,11,VALID,1.22191,
2003-11-15, 02:02:00,VALID,917.542,VALID,0,VALID,100,VALID,0,VALID,19.7345,VALID,11,VALID,0.877841,
2003-11-15, 02:03:00,VALID,917.535,VALID,0,VALID,100,VALID,-0.0169808,VALID,19.7144,VALID,358,VALID,1.03311,
2003-11-15, 02:04:00,VALID,917.527,VALID,0,VALID,100,VALID,0,VALID,19.7084,VALID,353,VALID,1.16834,
2003-11-15, 02:05:00,VALID,917.509,VALID,0,VALID,100,VALID,0,VALID,19.7213,VALID,357,VALID,1.39514,
2003-11-15, 02:06:00,VALID,917.495,VALID,0,VALID,100,VALID,0,VALID,19.7149,VALID,8,VALID,1.13672,
2003-11-15, 02:07:00,VALID,917.488,VALID,0,VALID,100,VALID,0,VALID,19.7144,VALID,7,VALID,1.36528,
2003-11-15, 02:08:00,VALID,917.47,VALID,0,VALID,99.9786,VALID,0.0509425,VALID,19.7015,VALID,19,VALID,1.45076,
2003-11-15, 02:09:00,VALID,917.472,VALID,0,VALID,99.9481,VALID,0,VALID,19.7017,VALID,11,VALID,1.06068,
2003-11-15, 02:10:00,VALID,917.469,VALID,0,VALID,99.9125,VALID,0,VALID,19.689,VALID,1,VALID,1.23382,
2003-11-15, 02:11:00,VALID,917.468,VALID,0,VALID,99.9074,VALID,0,VALID,19.6861,VALID,357,VALID,0.786701,
2003-11-15, 02:12:00,VALID,917.45,VALID,0,VALID,99.9112,VALID,0.0169808,VALID,19.6727,VALID,357,VALID,0.790179,
2003-11-15, 02:13:00,VALID,917.435,VALID,0,VALID,99.9049,VALID,0,VALID,19.6528,VALID,345,VALID,1.32049,
2003-11-15, 02:14:00,VALID,917.421,VALID,0,VALID,99.9278,VALID,0,VALID,19.6662,VALID,5,VALID,1.20203,
2003-11-15, 02:15:00,VALID,917.406,VALID,0,VALID,99.9329,VALID,0,VALID,19.6766,VALID,344,VALID,0.928943,
2003-11-15, 02:16:00,VALID,917.398,VALID,0,VALID,99.9367,VALID,0,VALID,19.6828,VALID,332,VALID,1.61814,
2003-11-15, 02:17:00,VALID,917.389,VALID,0,VALID,99.9494,VALID,-0.0169808,VALID,19.6958,VALID,353,VALID,0.888081,
2003-11-15, 02:18:00,VALID,917.384,VALID,0,VALID,99.9329,VALID,0,VALID,19.6729,VALID,2,VALID,1.01687,
2003-11-15, 02:19:00,VALID,917.363,VALID,0,VALID,99.9265,VALID,0,VALID,19.6898,VALID,355,VALID,1.14353,
2003-11-15, 02:20:00,VALID,917.357,VALID,0,VALID,99.9176,VALID,-0.0169808,VALID,19.6731,VALID,15,VALID,0.912972,
2003-11-15, 02:21:00,VALID,917.341,VALID,0,VALID,99.9125,VALID,0.0169808,VALID,19.6799,VALID,10,VALID,0.525391,
2003-11-15, 02:22:00,VALID,917.318,VALID,0,VALID,99.9303,VALID,0,VALID,19.6796,VALID,353,VALID,0.922637,
2003-11-15, 02:23:00,VALID,917.299,VALID,0,VALID,99.9252,VALID,-0.0169808,VALID,19.6958,VALID,347,VALID,0.471289,
2003-11-15, 02:24:00,VALID,917.306,VALID,0,VALID,99.929,VALID,-0.0169808,VALID,19.7059,VALID,5,VALID,0.784979,
2003-11-15, 02:25:00,VALID,917.302,VALID,0,VALID,99.9227,VALID,0,VALID,19.7027,VALID,351,VALID,0.717152,
2003-11-15, 02:26:00,VALID,917.29,VALID,0,VALID,99.9138,VALID,-0.0339617,VALID,19.6923,VALID,3,VALID,0.929874,
2003-11-15, 02:27:00,VALID,917.29,VALID,0,VALID,99.9176,VALID,-0.0339617,VALID,19.7022,VALID,8,VALID,0.99907,
2003-11-15, 02:28:00,VALID,917.284,VALID,0,VALID,99.924,VALID,0,VALID,19.7084,VALID,343,VALID,0.946615,
2003-11-15, 02:29:00,VALID,917.291,VALID,0,VALID,99.9138,VALID,0.0169808,VALID,19.7241,VALID,327,VALID,0.807347,
2003-11-15, 02:30:00,VALID,917.276,VALID,0,VALID,99.8985,VALID,0,VALID,19.7211,VALID,338,VALID,0.746094,
2003-11-15, 02:31:00,VALID,917.271,VALID,0,VALID,99.8782,VALID,0.0169808,VALID,19.7412,VALID,336,VALID,0.69391,
2003-11-15, 02:32:00,VALID,917.259,VALID,0,VALID,99.8604,VALID,0.0169808,VALID,19.7536,VALID,348,VALID,0.785714,
2003-11-15, 02:33:00,VALID,917.229,VALID,0,VALID,99.8108,VALID,0,VALID,19.7763,VALID,3,VALID,0.857422,
2003-11-15, 02:34:00,VALID,917.218,VALID,0,VALID,99.7714,VALID,0,VALID,19.7892,VALID,359,VALID,0.747768,
2003-11-15, 02:35:00,VALID,917.205,VALID,0,VALID,99.6633,VALID,0,VALID,19.783,VALID,343,VALID,1.22438,
2003-11-15, 02:36:00,VALID,917.182,VALID,0,VALID,99.5666,VALID,0.0169808,VALID,19.7922,VALID,357,VALID,1.0928,
2003-11-15, 02:37:00,VALID,917.186,VALID,0,VALID,99.4942,VALID,0.0169808,VALID,19.7924,VALID,9,VALID,1.02229,
2003-11-15, 02:38:00,VALID,917.167,VALID,0,VALID,99.4357,VALID,0,VALID,19.7961,VALID,353,VALID,1.08687,
2003-11-15, 02:39:00,VALID,917.149,VALID,0,VALID,99.3924,VALID,0,VALID,19.7956,VALID,11,VALID,0.649528,
2003-11-15, 02:40:00,VALID,917.147,VALID,0,VALID,99.3568,VALID,-0.0169808,VALID,19.7926,VALID,11,VALID,0.245164,
2003-11-15, 02:41:00,VALID,917.14,VALID,0,VALID,99.3288,VALID,0,VALID,19.7862,VALID,11,VALID,0.145461,
2003-11-15, 02:42:00,VALID,917.131,VALID,0,VALID,99.3212,VALID,0,VALID,19.7792,VALID,11,VALID,0.031808,
2003-11-15, 02:43:00,VALID,917.122,VALID,0,VALID,99.3517,VALID,0,VALID,19.7703,VALID,11,VALID,0.0657704,
2003-11-15, 02:44:00,VALID,917.123,VALID,0,VALID,99.381,VALID,-0.0169808,VALID,19.7536,VALID,20,VALID,0.255903,
2003-11-15, 02:45:00,VALID,917.123,VALID,0,VALID,99.4471,VALID,-0.0169808,VALID,19.7571,VALID,7,VALID,0.898801,
2003-11-15, 02:46:00,VALID,917.126,VALID,0,VALID,99.4242,VALID,0,VALID,19.7375,VALID,339,VALID,0.649164,
2003-11-15, 02:47:00,VALID,917.132,VALID,0,VALID,99.3899,VALID,-0.0339617,VALID,19.738,VALID,10,VALID,0.966264,
2003-11-15, 02:48:00,VALID,917.14,VALID,0,VALID,99.3683,VALID,-0.0339617,VALID,19.738,VALID,357,VALID,0.698219,
2003-11-15, 02:49:00,VALID,917.137,VALID,0,VALID,99.3695,VALID,-0.0169808,VALID,19.7345,VALID,4,VALID,0.796697,
2003-11-15, 02:50:00,VALID,917.125,VALID,0,VALID,99.3721,VALID,-0.0169808,VALID,19.7477,VALID,351,VALID,0.271949,
2003-11-15, 02:51:00,VALID,917.128,VALID,0,VALID,99.4001,VALID,-0.0169808,VALID,19.7377,VALID,5,VALID,0.435683,
2003-11-15, 02:52:00,VALID,917.116,VALID,0,VALID,99.4471,VALID,0,VALID,19.7442,VALID,18,VALID,0.0133929,
2003-11-15, 02:53:00,VALID,917.11,VALID,0,VALID,99.4306,VALID,0,VALID,19.7576,VALID,359,VALID,0.174361,
2003-11-15, 02:54:00,VALID,917.115,VALID,0,VALID,99.4115,VALID,0,VALID,19.741,VALID,340,VALID,0.24314,
2003-11-15, 02:55:00,VALID,917.103,VALID,0,VALID,99.4051,VALID,0,VALID,19.7407,VALID,7,VALID,0.528158,
2003-11-15, 02:56:00,VALID,917.095,VALID,0,VALID,99.3861,VALID,-0.0339617,VALID,19.7539,VALID,20,VALID,0.442042,
2003-11-15, 02:57:00,VALID,917.088,VALID,0,VALID,99.3988,VALID,-0.0169808,VALID,19.7837,VALID,18,VALID,0.410764,
2003-11-15, 02:58:00,VALID,917.09,VALID,0,VALID,99.3721,VALID,-0.0169808,VALID,19.783,VALID,10,VALID,0.521949,
2003-11-15, 02:59:00,VALID,917.058,VALID,0,VALID,99.3187,VALID,-0.0169808,VALID,19.7867,VALID,360,VALID,0.461128,
2003-11-15, 03:00:00,VALID,917.055,VALID,0,VALID,99.3352,VALID,0,VALID,19.7956,VALID,11,VALID,0.407584,
2003-11-15, 03:01:00,VALID,917.042,VALID,0,VALID,99.2449,VALID,0,VALID,19.7991,VALID,11,VALID,0.568788,
2003-11-15, 03:02:00,VALID,917.043,VALID,0,VALID,99.2487,VALID,0,VALID,19.812,VALID,10,VALID,0.22154,
2003-11-15, 03:03:00,VALID,917.048,VALID,0,VALID,99.189,VALID,0,VALID,19.8051,VALID,258,VALID,0.60665,
2003-11-15, 03:04:00,VALID,917.046,VALID,0,VALID,99.119,VALID,-0.0169808,VALID,19.7894,VALID,246,VALID,0.421196,
2003-11-15, 03:05:00,VALID,917.033,VALID,0,VALID,99.1559,VALID,-0.0169808,VALID,19.773,VALID,246,VALID,0.390439,
2003-11-15, 03:06:00,VALID,917.019,VALID,0,VALID,99.2284,VALID,0.0509425,VALID,19.7668,VALID,246,VALID,0.0546875,
2003-11-15, 03:07:00,VALID,917.014,VALID,0,VALID,99.2958,VALID,0,VALID,19.7502,VALID,244,VALID,0.195313,
2003-11-15, 03:08:00,VALID,916.996,VALID,0,VALID,99.381,VALID,0,VALID,19.7504,VALID,308,VALID,0.381138,
2003-11-15, 03:09:00,VALID,916.971,VALID,0,VALID,99.4942,VALID,0.0169808,VALID,19.7631,VALID,360,VALID,0.964286,
2003-11-15, 03:10:00,VALID,916.95,VALID,0,VALID,99.5285,VALID,0.0339617,VALID,19.7566,VALID,8,VALID,0.450195,
2003-11-15, 03:11:00,VALID,916.926,VALID,0,VALID,99.5209,VALID,0.0169808,VALID,19.7338,VALID,7,VALID,0.24858,
2003-11-15, 03:12:00,VALID,916.927,VALID,0,VALID,99.5679,VALID,0.0169808,VALID,19.7472,VALID,10,VALID,0.645275,
2003-11-15, 03:13:00,VALID,916.915,VALID,0,VALID,99.5043,VALID,0.0339617,VALID,19.7695,VALID,17,VALID,0.973189,
2003-11-15, 03:14:00,VALID,916.9,VALID,0,VALID,99.3912,VALID,0,VALID,19.7604,VALID,17,VALID,0.805685,
2003-11-15, 03:15:00,VALID,916.885,VALID,0,VALID,99.3199,VALID,0.0169808,VALID,19.7631,VALID,16,VALID,0.697461,
2003-11-15, 03:16:00,VALID,916.872,VALID,0,VALID,99.2246,VALID,0.0339617,VALID,19.7668,VALID,12,VALID,0.707775,
2003-11-15, 03:17:00,VALID,916.867,VALID,0,VALID,99.133,VALID,0.0169808,VALID,19.7661,VALID,8,VALID,0.666853,
2003-11-15, 03:18:00,VALID,916.857,VALID,0,VALID,99.1089,VALID,0.0339617,VALID,19.7628,VALID,10,VALID,0.508176,
2003-11-15, 03:19:00,VALID,916.851,VALID,0,VALID,99.0936,VALID,0.0509425,VALID,19.7663,VALID,11,VALID,0.43859,
2003-11-15, 03:20:00,VALID,916.838,VALID,0,VALID,99.044,VALID,-0.0339617,VALID,19.7733,VALID,11,VALID,0.592862,
2003-11-15, 03:21:00,VALID,916.823,VALID,0,VALID,98.9054,VALID,-0.0849042,VALID,19.7713,VALID,17,VALID,0.420473,
2003-11-15, 03:22:00,VALID,916.836,VALID,0,VALID,98.8266,VALID,-0.0849042,VALID,19.7584,VALID,22,VALID,1.00521,
2003-11-15, 03:23:00,VALID,916.837,VALID,0,VALID,98.7325,VALID,-0.101885,VALID,19.7651,VALID,25,VALID,0.478016,
2003-11-15, 03:24:00,VALID,916.838,VALID,0,VALID,98.7312,VALID,-0.0679233,VALID,19.7683,VALID,24,VALID,0.530488,
2003-11-15, 03:25:00,VALID,916.843,VALID,0,VALID,98.7147,VALID,-0.101885,VALID,19.7581,VALID,24,VALID,0.227471,
2003-11-15, 03:26:00,VALID,916.829,VALID,0,VALID,98.7185,VALID,-0.0849042,VALID,19.7519,VALID,24,VALID,0.0335366,
2003-11-15, 03:27:00,VALID,916.821,VALID,0,VALID,98.7147,VALID,-0.101885,VALID,19.7454,VALID,24,VALID,0.108073,
2003-11-15, 03:28:00,VALID,916.809,VALID,0,VALID,98.735,VALID,-0.0849042,VALID,19.7328,VALID,24,VALID,0.0720274,
2003-11-15, 03:29:00,VALID,916.815,VALID,0,VALID,98.7706,VALID,-0.101885,VALID,19.7164,VALID,24,VALID,0.00093006,
2003-11-15, 03:30:00,VALID,916.829,VALID,0,VALID,98.7897,VALID,-0.101885,VALID,19.7067,VALID,24,VALID,0.00355114,
2003-11-15, 03:31:00,VALID,916.839,VALID,0,VALID,98.8189,VALID,-0.0849042,VALID,19.6938,VALID,23,VALID,0.425409,
2003-11-15, 03:32:00,VALID,916.857,VALID,0,VALID,98.8469,VALID,-0.0849042,VALID,19.6677,VALID,5,VALID,0.548118,
2003-11-15, 03:33:00,VALID,916.869,VALID,0,VALID,98.8316,VALID,-0.0849042,VALID,19.6254,VALID,353,VALID,0.608789,
2003-11-15, 03:34:00,VALID,916.876,VALID,0,VALID,98.8952,VALID,-0.101885,VALID,19.616,VALID,354,VALID,0.583008,
2003-11-15, 03:35:00,VALID,916.857,VALID,0,VALID,98.9804,VALID,-0.0509425,VALID,19.5964,VALID,354,VALID,0.522879,
2003-11-15, 03:36:00,VALID,916.851,VALID,0,VALID,99.0516,VALID,0.0339617,VALID,19.5599,VALID,356,VALID,0.377003,
2003-11-15, 03:37:00,VALID,916.826,VALID,0,VALID,99.1585,VALID,-0.0169808,VALID,19.5636,VALID,356,VALID,0.470203,
2003-11-15, 03:38:00,VALID,916.822,VALID,0,VALID,99.1979,VALID,0.0169808,VALID,19.5636,VALID,356,VALID,0.303085,
2003-11-15, 03:39:00,VALID,916.809,VALID,0,VALID,99.1839,VALID,0.0169808,VALID,19.537,VALID,337,VALID,0.447396,
2003-11-15, 03:40:00,VALID,916.797,VALID,0,VALID,99.25,VALID,0.0169808,VALID,19.5437,VALID,325,VALID,0.283736,
2003-11-15, 03:41:00,VALID,916.772,VALID,0,VALID,99.2665,VALID,0,VALID,19.5601,VALID,317,VALID,0.210938,
2003-11-15, 03:42:00,VALID,916.773,VALID,0,VALID,99.2678,VALID,0.0339617,VALID,19.5534,VALID,311,VALID,0.116642,